Location: Mentone
(34.5413°N, 85.5351°W)
Time: 07:23:44
(UTC-05:00)

A-11 Canister half - Visible Passes

Search period start: 23 October 2014 00:00
Search period end: 02 November 2014 00:00
Orbit: 1525 x 1685 km, 47.3° (Epoch: 20 October)

Date Brightness Start Highest point End Pass type
(mag) Time Alt. Az. Time Alt. Az. Time Alt. Az.
23 Oct 11.0 19:39:11 10° W 19:45:36 21° SW 19:52:08 10° S visible
24 Oct 11.0 19:17:26 10° W 19:24:08 23° SW 19:30:57 10° S visible
25 Oct 11.1 18:55:43 10° WNW 19:02:40 24° SW 19:09:45 10° S visible
26 Oct 11.1 18:34:01 10° WNW 18:41:13 26° SW 18:48:31 10° S visible
27 Oct 11.1 18:12:20 10° WNW 18:19:45 28° SW 18:27:16 10° S visible
31 Oct 11.2 06:18:27 10° S 06:26:04 26° SE 06:33:30 10° ENE visible
01 Nov 11.2 05:57:12 10° S 06:04:35 24° SE 06:11:48 10° ENE visible
